User: anonymous   Login
Location: Unspecified
(0.0000°N, 0.0000°E)
Time: 07:12:08
(UTC+00:00)
Language:

ASUSAT - Orbit

View from above orbital plane
View from above orbital plane
View from above satellite
View from above satellite

Ground track
Ground track

The orbit data is extracted from the following two-line orbital elements,

1 26065U 00004E   19082.93474226 -.00000003 +00000-0 +19029-4 0  9999
2 26065 100.2005 217.0680 0036047 290.7660 068.9660 14.36863487003999
Epoch (UTC): 23 March 2019 22:26:01
Eccentricity: 0.0036047
inclination: 100.2005°
perigee height: 743 km
apogee height: 794 km
right ascension of ascending node: 217.0680°
argument of perigee: 290.7660°
revolutions per day: 14.36863487
mean anomaly at epoch: 68.9660°
orbit number at epoch: 399

The dashed part of the orbit path shows where the satellite is in the earth's shadow,  

DLR